STARLINK-36141

Last updated on Fri Dec 19 2025 00:02:10 GMT+0000 (Coordinated Universal Time)

1 67057U 25294AD 25351.83335648 -.01424736 60756-3 -31578-2 0 9995 2 67057 43.0000 151.2187 0001695 278.4975 162.7217 15.97103667 2128
UTC large
Height (km)
Speed (km/s)
/
Latitude / Longitude
Inclination (degrees)
Orbital Period (minutes)
Azimuth
Elevation
Range (km)
Doppler Factor

Next 0 passes for location: London (51.5072 / 0.1276)

Sorry there are no passes over London.